{"data":{"norad_id":63373,"intl_designator":"2025-063L","name":"STARLINK-33617","alt_names":[],"object_type":"PAYLOAD","status":"ACTIVE","operator":null,"country":"US","launch_date":"2025-03-26","launch_site_code":"AFWTR","launch_vehicle":null,"mission":null,"orbit_class":"UNKNOWN","rcs_meters":null,"size_class":null,"mass_kg":null,"dimensions":null,"purposes":["comms"],"wikipedia_slug":null,"has_3d_model":false,"image_url":null,"decayed_at":null,"tle_current":{"epoch":"2026-05-25T03:46:37.208640Z","epoch_age_seconds":57585,"freshness":"FRESH","line1":"1 63373U 25063L   26145.15737510  .00018911  00000+0  64872-3 0  9994","line2":"2 63373  53.1589  54.6710 0001119  81.0809 279.0319 15.30213216 66452","mean_motion":15.30213216,"eccentricity":0.0001119,"inclination_deg":53.1589,"raan_deg":54.671,"arg_perigee_deg":81.0809,"mean_anomaly_deg":279.0319,"bstar":0.00064872,"rev_number":6645,"period_min":94.104532946342,"perigee_km":474.40872342857,"apogee_km":475.94249479049,"semimajor_km":6853.3126091095,"source":"CELESTRAK","updated_at":"2026-05-25T13:38:19.963530Z"}}}